YAHSAT 1A

Last updated on Thu Nov 21 2024 00:02:41 GMT+0000 (Coordinated Universal Time)

1 37393U 11016B 24324.94829104 .00000102 00000+0 00000+0 0 9997 2 37393 0.0127 320.5789 0003277 321.1602 171.6025 1.00269613 36655
UTC large
Height (km)
Speed (km/s)
/
Latitude / Longitude
Inclination (degrees)
Orbital Period (minutes)
Azimuth
Elevation
Range (km)
Doppler Factor

Next 0 passes for location: London (51.5072 / 0.1276)

Sorry there are no passes over London.